Stations météo

Publicité
Gourdon, France (7535): Température de l'air & dewpoint: 14.09.2018 06:00:00 - 20.09.2018 06:00:00 (CEST)Gourdon, France (7535): Température de l'air 5cm: 14.09.2018 06:00:00 - 20.09.2018 06:00:00 (CEST)Gourdon, France (7535): Température de l'air -20cm & Température de l'air -100cm: 14.09.2018 06:00:00 - 20.09.2018 06:00:00 (CEST)Gourdon, France (7535): Vitesse du vent & gusts: 14.09.2018 06:00:00 - 20.09.2018 06:00:00 (CEST)Gourdon, France (7535): Direction du vent: 14.09.2018 06:00:00 - 20.09.2018 06:00:00 (CEST)Gourdon, France (7535): reduced air pressure: 14.09.2018 06:00:00 - 20.09.2018 06:00:00 (CEST)Gourdon, France (7535): visibility: 14.09.2018 06:00:00 - 20.09.2018 06:00:00 (CEST)Gourdon, France (7535): Ensoleillement: 14.09.2018 06:00:00 - 20.09.2018 06:00:00 (CEST)Gourdon, France (7535): Quantités de précipitations: 14.09.2018 06:00:00 - 20.09.2018 06:00:00 (CEST)
Date & Time tt [°C] td [°C] tt 5cm [°C] tt -20cm [°C] tt -100cm [°C] ff [km/h] ff [knt] fx [km/h] fx [knt] dd ppp [hPa] vv [km] sd [min] rr [mm]
20.09.2018 06:00:00 15,7 14,6 13,6 22,3 21,2 0 0 10 5 N 1020,8 13 0 0,0
20.09.2018 05:00:00 16,6 16,0 14,3 22,5 21,2 5 3 11 6 E 1020,9 20 0 0,0
20.09.2018 04:00:00 15,8 15,0 14,2 22,7 21,2 6 3 8 5 SE 1021,3 13 0 0,0
20.09.2018 03:00:00 16,2 15,1 14,8 22,9 21,2 7 4 9 5 SE 1021,4 18 0 0,0
20.09.2018 02:00:00 16,7 15,2 15,2 23,1 21,2 2 1 9 5 W 1021,5 20 0 0,0
20.09.2018 01:00:00 17,2 15,2 15,8 23,3 21,2 5 3 8 4 SE 1021,5 20 0 0,0
20.09.2018 00:00:00 18,1 15,7 16,5 23,5 21,2 3 2 8 4 SSE 1021,7 20 0 0,0
19.09.2018 23:00:00 19,5 16,0 17,3 23,6 21,2 0 0 6 3 N 1021,2 20 0 0,0
19.09.2018 22:00:00 21,2 16,2 18,4 23,8 21,2 0 0 6 3 N 1020,7 20 0 0,0
19.09.2018 21:00:00 23,6 16,4 20,4 23,8 21,2 2 1 11 6 N 1020,0 20 0 0,0
19.09.2018 20:00:00 25,5 16,4 23,5 23,8 21,2 6 3 12 7 NNW 1019,6 20 1 0,0
19.09.2018 19:00:00 27,3 16,3 29,3 23,6 21,2 6 4 20 11 NW 1019,3 20 45 0,0
19.09.2018 18:00:00 29,0 17,2 34,9 23,4 21,2 9 5 21 11 NW 1018,9 19 58 0,0
19.09.2018 17:00:00 29,9 16,7 38,4 23,0 21,2 6 3 16 9 WNW 1018,8 20 60 0,0
19.09.2018 16:00:00 29,2 17,1 37,9 22,6 21,2 7 4 16 9 NNW 1019,3 20 60 0,0
19.09.2018 15:00:00 28,9 16,8 36,9 22,2 21,2 6 3 16 9 NNW 1019,6 20 60 0,0
19.09.2018 14:00:00 27,8 16,4 35,1 21,9 21,2 5 3 14 8 WNW 1020,2 20 60 0,0
19.09.2018 13:00:00 26,9 18,2 33,7 21,7 21,2 4 2 13 7 SW 1020,8 20 60 0,0
19.09.2018 12:00:00 25,2 17,9 31,4 21,6 21,2 4 2 11 6 SSW 1021,2 20 60 0,0
19.09.2018 11:00:00 23,6 18,0 28,0 21,6 21,1 4 2 9 5 SE 1021,4 20 60 0,0
19.09.2018 10:00:00 21,5 16,7 20,7 21,8 21,1 0 0 9 5 N 1021,1 20 60 0,0
19.09.2018 09:00:00 17,6 15,6 15,1 21,9 21,1 8 4 14 8 SE 1020,9 20 33 0,0
19.09.2018 08:00:00 15,5 14,7 13,6 22,2 21,1 10 6 16 8 SE 1020,7 20 0 0,0
19.09.2018 07:00:00 15,6 14,1 13,8 22,4 21,1 0 0 9 5 N 1020,3 20 0 0,0
19.09.2018 06:00:00 16,0 14,4 14,4 22,5 21,1 8 4 10 5 SE 1019,9 20 0 0,0
19.09.2018 05:00:00 16,2 14,4 14,4 22,8 21,1 6 3 8 4 ESE 1019,8 20 0 0,0
19.09.2018 04:00:00 18,1 14,6 14,9 23,0 21,1 3 1 8 5 SE 1019,3 20 0 0,0
19.09.2018 03:00:00 17,3 14,9 15,4 23,2 21,0 7 4 10 6 SSE 1019,2 20 0 0,0
19.09.2018 02:00:00 18,7 14,8 16,1 23,4 21,0 3 2 10 5 S 1019,3 20 0 0,0
19.09.2018 01:00:00 18,6 15,3 16,4 23,6 21,1 8 4 13 7 SSE 1019,1 20 0 0,0
19.09.2018 00:00:00 18,6 15,1 16,5 23,8 21,1 10 5 19 10 SSE 1018,8 20 0 0,0
18.09.2018 23:00:00 19,6 15,0 17,1 23,8 21,0 10 6 31 17 S 1018,7 20 0 3,2
18.09.2018 22:00:00 22,5 16,8 21,0 23,9 21,0 7 4 12 6 S 1018,1 20 0 0,0
18.09.2018 21:00:00 24,7 16,4 22,7 23,9 21,0 5 3 13 7 NNE 1016,6 20 0 0,0
18.09.2018 20:00:00 25,9 16,4 25,0 23,8 21,1 7 4 14 8 NNW 1015,8 20 25 0,0
18.09.2018 19:00:00 27,9 16,2 29,5 23,6 21,0 6 3 11 6 NW 1015,1 20 25 0,0
18.09.2018 18:00:00 28,9 14,7 30,1 23,3 21,0 3 1 9 5 E 1014,7 20 13 0,0
18.09.2018 17:00:00 29,8 14,7 32,8 22,9 21,0 6 3 16 9 S 1014,8 20 36 0,0
18.09.2018 16:00:00 30,8 15,2 38,9 22,5 21,0 5 3 17 9 NW 1015,1 20 56 0,0
18.09.2018 15:00:00 29,7 15,0 37,2 22,1 21,0 5 3 16 9 SW 1015,6 20 60 0,0
18.09.2018 14:00:00 28,1 16,1 35,3 21,8 21,0 5 3 23 12 ENE 1015,8 20 57 0,0
18.09.2018 13:00:00 26,9 15,9 32,8 21,7 21,0 5 3 18 10 SE 1016,5 20 60 0,0
18.09.2018 12:00:00 25,2 15,5 30,7 21,6 21,0 12 6 26 14 SSE 1017,3 20 60 0,0
18.09.2018 11:00:00 23,9 15,4 22,9 21,6 21,0 14 7 29 15 SSE 1017,5 20 53 0,0
18.09.2018 10:00:00 21,1 15,0 22,7 21,7 21,0 13 7 27 15 S 1017,3 20 46 0,0
18.09.2018 09:00:00 19,4 14,6 17,0 21,9 21,0 8 5 23 12 SE 1017,0 20 60 0,0
18.09.2018 08:00:00 17,2 13,7 14,4 22,1 21,0 15 8 24 13 SE 1016,8 20 2 0,0
18.09.2018 07:00:00 15,5 13,0 13,3 22,3 21,0 8 4 14 7 ESE 1017,1 20 0 0,0
18.09.2018 06:00:00 16,0 13,1 13,9 22,4 21,0 6 4 11 6 ESE 1016,9 20 0 0,0
18.09.2018 05:00:00 17,7 13,2 14,1 22,6 21,0 2 1 13 7 S 1016,6 20 0 0,0
18.09.2018 04:00:00 18,3 13,2 14,7 22,8 21,0 3 2 13 7 SSE 1016,1 20 0 0,0
18.09.2018 03:00:00 19,6 13,5 17,7 22,9 21,0 11 6 20 11 SE 1016,0 20 0 0,0
18.09.2018 02:00:00 20,1 13,8 18,1 23,1 20,9 8 5 24 13 SE 1015,8 20 0 0,0
18.09.2018 01:00:00 21,1 14,3 19,4 23,2 20,9 13 7 29 16 SSE 1015,8 20 0 0,0
18.09.2018 00:00:00 22,3 14,2 20,1 23,3 21,0 7 4 26 14 SSE 1015,8 20 0 0,0
17.09.2018 23:00:00 23,6 14,3 21,9 23,4 20,9 11 6 30 16 S 1015,5 20 0 0,0
17.09.2018 22:00:00 25,1 14,2 23,9 23,4 20,9 19 10 34 18 S 1014,8 20 0 0,0
17.09.2018 21:00:00 26,2 13,7 24,4 23,4 21,0 12 7 22 12 S 1014,0 20 0 0,0
17.09.2018 20:00:00 28,0 13,5 26,4 23,3 21,0 12 7 19 11 S 1013,2 20 12 0,0
17.09.2018 19:00:00 29,9 12,8 31,9 23,1 21,0 14 7 26 14 S 1013,1 20 60 0,0
17.09.2018 18:00:00 31,5 12,8 33,6 22,7 21,0 11 6 22 12 SSW 1013,2 20 36 0,0
17.09.2018 17:00:00 31,6 12,9 34,8 22,4 21,0 10 5 27 15 S 1013,8 20 35 0,0
17.09.2018 16:00:00 32,7 12,9 38,7 21,9 21,0 9 5 25 13 SSW 1014,4 20 60 0,0
17.09.2018 15:00:00 31,2 13,5 38,2 21,5 20,9 15 8 28 15 SSE 1015,2 20 60 0,0
17.09.2018 14:00:00 29,7 13,9 36,4 21,2 21,0 10 6 23 12 S 1016,3 20 60 0,0
17.09.2018 13:00:00 28,4 13,5 33,4 21,0 21,0 14 8 24 13 SSE 1017,2 20 60 0,0
17.09.2018 12:00:00 26,4 13,5 28,4 20,9 21,0 12 6 22 12 SSE 1018,1 20 51 0,0
17.09.2018 11:00:00 24,0 13,8 27,6 20,9 21,0 10 5 21 11 SSE 1018,7 20 57 0,0
17.09.2018 10:00:00 21,5 13,1 24,3 21,0 21,0 8 4 17 9 SSE 1019,3 20 60 0,0
17.09.2018 09:00:00 19,0 13,4 15,3 21,2 20,9 4 2 11 6 ESE 1019,5 20 49 0,0
17.09.2018 08:00:00 17,1 12,4 14,7 21,3 20,9 6 3 14 8 SE 1019,7 20 0 0,0
17.09.2018 07:00:00 17,0 11,9 14,7 21,5 20,9 6 4 13 7 SSE 1019,5 20 0 0,0
17.09.2018 06:00:00 17,4 11,2 14,5 21,6 20,9 5 3 14 8 ESE 1019,4 20 0 0,0
17.09.2018 05:00:00 17,3 9,7 14,7 21,8 20,9 5 3 10 6 SE 1019,6 20 0 0,0
17.09.2018 04:00:00 16,2 9,8 14,2 21,9 20,9 8 4 19 10 SE 1019,9 20 0 0,0
17.09.2018 03:00:00 15,0 9,8 14,1 22,1 20,9 6 4 26 14 SSE 1020,4 20 0 0,0
17.09.2018 02:00:00 15,9 9,6 13,8 22,3 20,9 2 1 8 4 E 1020,2 20 0 0,0
17.09.2018 01:00:00 15,7 9,8 13,6 22,5 20,9 5 3 9 5 ESE 1020,4 20 0 0,0
17.09.2018 00:00:00 16,4 9,8 14,4 22,7 20,9 9 5 12 7 ESE 1020,5 20 0 0,0
16.09.2018 23:00:00 18,2 10,3 14,4 22,8 21,0 11 6 14 7 ESE 1020,6 20 0 0,0
16.09.2018 22:00:00 17,7 11,3 15,7 22,9 21,0 8 5 11 6 SE 1020,8 20 0 0,0
16.09.2018 21:00:00 20,7 12,1 17,4 22,9 21,0 0 0 8 4 N 1019,9 20 0 0,0
16.09.2018 20:00:00 24,0 11,0 20,7 22,8 21,0 3 2 14 7 N 1019,0 20 17 0,0
16.09.2018 19:00:00 25,9 11,3 27,0 22,6 21,0 7 4 16 9 NNW 1018,7 20 5 0,0
16.09.2018 18:00:00 28,1 11,2 31,5 22,2 21,0 8 4 19 10 NNW 1018,2 20 38 0,0
16.09.2018 17:00:00 29,4 10,5 38,1 21,8 21,0 9 5 21 11 NW 1018,1 20 60 0,0
16.09.2018 16:00:00 29,4 10,0 37,2 21,3 21,0 6 4 18 10 SW 1018,2 20 60 0,0
16.09.2018 15:00:00 28,4 10,6 36,8 20,9 21,0 8 5 19 10 WNW 1018,6 20 60 0,0
16.09.2018 14:00:00 27,6 12,0 35,0 20,5 21,0 4 2 13 7 E 1018,9 20 60 0,0
16.09.2018 13:00:00 27,1 12,7 34,4 20,3 21,0 4 2 19 10 SSE 1019,6 20 60 0,0
16.09.2018 12:00:00 24,9 12,5 29,2 20,2 21,0 5 3 12 6 S 1019,9 20 60 0,0
16.09.2018 11:00:00 20,2 12,4 26,1 20,3 21,0 4 2 8 5 WNW 1020,8 20 60 0,0
16.09.2018 10:00:00 16,6 12,1 12,9 20,4 21,0 0 0 5 3 N 1021,0 20 29 0,0
16.09.2018 09:00:00 13,3 9,5 10,0 20,6 21,0 0 0 7 4 N 1021,1 20 10 0,0
16.09.2018 08:00:00 11,1 9,4 8,4 20,8 21,0 5 3 7 4 SE 1020,9 20 0 0,0
16.09.2018 07:00:00 11,7 9,3 8,2 21,0 21,0 0 0 4 2 N 1020,6 20 0 0,0
16.09.2018 06:00:00 12,6 9,6 9,5 21,3 21,0 3 2 10 5 NW 1020,0 20 0 0,0
16.09.2018 05:00:00 12,4 9,0 9,6 21,5 21,0 4 2 9 5 ESE 1019,9 20 0 0,0
16.09.2018 04:00:00 14,3 9,3 10,4 21,7 21,0 3 2 10 6 NNW 1020,1 20 0 0,0
16.09.2018 03:00:00 14,0 9,2 10,6 21,9 21,0 5 3 10 5 E 1020,5 20 0 0,0
16.09.2018 02:00:00 14,2 9,2 11,6 22,1 21,0 3 2 12 7 ESE 1021,3 20 0 0,0
16.09.2018 01:00:00 13,8 9,2 11,9 22,3 21,0 2 1 9 5 E 1021,2 20 0 0,0
16.09.2018 00:00:00 14,4 9,2 12,3 22,5 21,0 6 3 11 6 SE 1021,2 20 0 0,0
15.09.2018 23:00:00 15,3 9,6 13,1 22,7 21,0 0 0 8 4 N 1021,0 20 0 0,0
15.09.2018 22:00:00 16,5 10,3 14,2 22,7 21,0 4 2 9 5 SSE 1021,0 20 0 0,0
15.09.2018 21:00:00 19,1 10,9 15,4 22,8 21,0 0 0 7 4 N 1020,6 20 0 0,0
15.09.2018 20:00:00 22,6 9,0 17,9 22,7 21,0 3 2 10 5 WNW 1020,3 20 23 0,0
15.09.2018 19:00:00 25,4 10,0 29,4 22,5 21,1 4 2 11 6 WNW 1019,8 20 52 0,0
15.09.2018 18:00:00 25,9 10,5 30,5 22,2 21,1 5 3 16 9 NNW 1019,7 20 43 0,0
15.09.2018 17:00:00 26,2 10,4 35,3 21,7 21,1 8 4 15 8 N 1020,0 20 60 0,0
15.09.2018 16:00:00 26,2 10,4 33,6 21,3 21,1 5 3 18 10 NNW 1020,3 20 60 0,0
15.09.2018 15:00:00 24,8 9,9 34,5 20,9 21,1 8 4 18 10 NW 1021,0 20 60 0,0
15.09.2018 14:00:00 23,6 11,0 31,8 20,5 21,1 6 3 14 8 N 1021,7 20 60 0,0
15.09.2018 13:00:00 22,7 11,1 31,6 20,3 21,1 6 3 14 8 N 1022,2 20 60 0,0
15.09.2018 12:00:00 21,4 11,7 28,5 20,2 21,1 5 3 11 6 NNE 1022,7 20 60 0,0
15.09.2018 11:00:00 18,7 12,7 24,4 20,2 21,1 7 4 11 6 N 1023,3 20 60 0,0
15.09.2018 10:00:00 15,5 12,6 19,5 20,4 21,1 3 2 7 4 N 1023,6 20 60 0,0
15.09.2018 09:00:00 13,0 12,1 10,2 20,6 21,1 0 0 6 3 N 1023,4 20 60 0,0
15.09.2018 08:00:00 10,4 10,1 7,9 20,8 21,1 0 0 4 2 N 1023,5 13 6 0,0
15.09.2018 07:00:00 10,1 9,6 7,9 21,0 21,1 0 0 8 4 N 1023,4 16 0 0,0
15.09.2018 06:00:00 10,9 10,3 8,5 21,2 21,1 0 0 6 4 N 1023,0 20 0 0,0
15.09.2018 05:00:00 11,1 10,5 9,4 21,4 21,1 0 0 4 2 N 1022,7 20 0 0,0
15.09.2018 04:00:00 11,5 10,7 9,8 21,6 21,1 0 0 6 3 N 1022,7 20 0 0,0
15.09.2018 03:00:00 11,6 10,5 9,9 21,8 21,1 0 0 9 5 N 1023,0 20 0 0,0
15.09.2018 02:00:00 12,5 11,1 10,5 22,0 21,1 0 0 4 2 N 1022,9 20 0 0,0
15.09.2018 01:00:00 13,3 11,5 11,2 22,2 21,1 0 0 5 3 N 1022,8 20 0 0,0
15.09.2018 00:00:00 14,3 12,0 12,2 22,4 21,2 0 0 5 3 N 1022,5 20 0 0,0
14.09.2018 23:00:00 15,5 12,1 13,3 22,6 21,2 0 0 6 4 N 1022,2 20 0 0,0
14.09.2018 22:00:00 17,5 12,4 13,8 22,7 21,1 0 0 10 5 N 1021,9 20 0 0,0
14.09.2018 21:00:00 19,5 12,0 15,8 22,7 21,1 3 2 10 6 W 1021,2 20 0 0,0
14.09.2018 20:00:00 21,4 12,8 19,8 22,6 21,2 6 3 13 7 NW 1020,4 20 0 0,0
14.09.2018 19:00:00 23,1 12,7 23,4 22,3 21,2 8 4 19 10 WNW 1019,9 20 21 0,0
14.09.2018 18:00:00 25,0 13,5 31,6 22,1 21,2 10 5 21 12 NNW 1019,5 20 56 0,0
14.09.2018 17:00:00 25,5 13,0 27,1 21,7 21,2 8 4 20 11 WNW 1019,3 20 46 0,0
14.09.2018 16:00:00 24,5 14,6 29,7 21,4 21,2 10 5 22 12 WNW 1019,6 20 48 0,0
14.09.2018 15:00:00 24,3 14,7 28,7 21,1 21,2 5 3 16 8 W 1019,8 20 49 0,0
14.09.2018 14:00:00 22,0 15,6 24,7 20,9 21,2 5 3 13 7 N 1020,8 20 30 0,0
14.09.2018 13:00:00 20,0 15,6 23,1 20,9 21,2 6 3 13 7 NW 1021,4 20 14 0,0
14.09.2018 12:00:00 17,7 16,6 17,8 20,9 21,2 3 2 9 5 WSW 1021,7 15 0 0,0
14.09.2018 11:00:00 16,4 16,1 17,1 20,9 21,2 2 1 10 5 WNW 1021,8 1,2 0 0,0
14.09.2018 10:00:00 16,2 15,7 16,9 21,0 21,2 3 1 9 5 W 1021,3 0,9 0 0,0
14.09.2018 09:00:00 15,9 15,4 16,0 21,0 21,2 4 2 6 4 W 1020,8 5 0 0,0
14.09.2018 08:00:00 15,8 15,3 15,5 21,2 21,2 2 1 7 4 WSW 1020,6 10 0 0,0
14.09.2018 07:00:00 15,6 15,3 15,1 21,3 21,2 3 1 6 3 SSW 1020,3 10 0 0,0
14.09.2018 06:00:00 15,0 14,7 13,2 21,4 21,2 3 2 6 4 S 1020,4 11 0 0,0

tt = Température de l'air
td = dewpoint
tt 5cm = Température de l'air 5cm
tt -20cm = Température de l'air -20cm
tt -100cm = Température de l'air -100cm
ff = Vitesse du vent
fx = gusts
dd = Direction du vent
ppp = reduced air pressure
vv = visibility
sd = Ensoleillement
rr = Quantités de précipitations

stations d'obs. à proximité